www.pogodaiklimat.ru

Погода и климат >> Архив погоды >> Россия >> Магаданская область >> Мыс Алевина


ПОГОДА на Мысе Алевина

  • Прогноз погоды на Мысе Алевина
  • Монитор погоды на Мысе Алевина
  • Климат города

АРХИВ ПОГОДЫ на Мысе Алевина

Время (UTC), дата Ветер
(напр.,м/с)
 
Видим.   Явления Облачность Т
(С)
Тd
(С)
f
(%)
Тe
(С)
Тes
(С)
Комфортность P
(гПа)
Po
(гПа)
Тmin
(С)
Tmax
(С)
R
(мм)
R24
(мм)
S
(см)
15 17.06 СВ 2 50 км 10/10 300 м
[St]
+6.0 +5.1 94 +3 +3 1015.0 1007.0
18 17.06 С 2 50 км 10/10 300 м
[St]
+5.8 +4.6 92 +3 +3 1014.8 1006.8
21 17.06 З 2 50 км 10/10 300 м
[St]
+6.8 +6.4 97 +4 +4 1014.8 1006.8 +5.7
00 18.06 З 1 50 км 10/10 300 м
[St]
+7.6 +6.3 91 +7 +7 1015.0 1007.0
03 18.06 Ю 1 500 м туман ?/? +7.7 +7.3 97 +7 +7 1014.9 1006.9
06 18.06 З 3 20 км туман местами 10/10 300 м
[St]
+8.0 +6.9 93 +5 +5 1014.7 1006.7
09 18.06 СЗ 3 10 км туман местами 10/10 300 м
[St]
+7.5 +6.4 93 +5 +5 1014.8 1006.8 +8.9
12 18.06 З 2 10 км туман местами 10/10 300 м
[St]
+7.2 +7.0 99 +5 +5 1015.2 1007.2
15 18.06 СЗ 2 200 м туман ?/? +6.8 +6.8 100 +4 +4 1015.6 1007.6
18 18.06 З 3 200 м туман ?/? +6.4 +6.4 100 +3 +3 1015.2 1007.2
21 18.06 СЗ 5 20 км туман местами 10/10 300 м
[St]
+7.8 +7.4 97 +4 +4 1015.2 1007.2 +6.0
00 19.06 СЗ 5 50 км {туман} 10/10 600 м
[St]
+8.5 +6.6 88 +5 +5 1014.7 1006.7
03 19.06 СЗ 6 4000 м туман местами 10/8 600 м
[St]
+8.8 +6.2 84 +5 +6 1013.7 1005.7
06 19.06 СЗ 7
{10}
50 км {туман} 10/10 300 м
[St]
+8.0 +5.8 86 +4 +4 1012.9 1004.9
09 19.06 СЗ 7
{10}
50 км 10/10 300 м
[St]
+6.8 +5.2 90 +2 +2 1012.2 1004.3 +9.3
12 19.06 СЗ 8
{10}
50 км 10/10 300 м
[St]
+6.1 +5.4 95 0 0 1011.9 1004.0
15 19.06 СЗ 9-10
{10}
200 м слабая морось {туман} туман ?/? +4.8 +4.6 99 -2 -2 1011.0 1003.0
18 19.06 СЗ 8
{10}
200 м слабая морось {туман} ?/? +4.5 +4.3 99 -2 -2 1010.5 1002.5
21 19.06 СЗ 9-10
{10}
200 м слабая морось {туман} ?/? +5.0 +4.8 99 -1 -1 1009.6 1001.6 +4.3 0.4
00 20.06 СЗ 7
{11}
200 м слабая морось {туман} ?/? +5.4 +5.4 100 -0 -0 1009.4 1001.4
03 20.06 СЗ 8
{10}
500 м слабая морось {туман} туман ?/? +5.3 +5.3 100 -1 -1 1008.2 1000.2
06 20.06 СЗ 8
{10}
500 м слабая морось {туман} туман ?/? +5.6 +5.6 100 -0 -0 1007.2 999.2
09 20.06 СЗ 6 500 м слабая морось {туман} туман ?/? +5.2 +5.2 100 -0 -0 1006.8 998.8 +6.4 0.6
12 20.06 СЗ 5 500 м слабая морось {туман} туман ?/? +4.8 +4.8 100 -0 -0 1006.2 998.2
15 20.06 СЗ 4 500 м морось {туман} туман ?/? +5.1 +5.1 100 +1 +1 1005.6 997.6
18 20.06 СЗ 4 500 м морось {туман} туман ?/? +4.9 +4.9 100 0 0 1004.9 996.9
21 20.06 З 3 500 м слабый дождь {туман} туман ?/? +5.3 +5.3 100 +2 +2 1004.4 996.4 +4.5 1
00 21.06 ЮЗ 2 500 м дождь {туман} ?/? +5.8 +5.8 100 +3 +3 1004.2 996.2
03 21.06 ЮВ 4 4000 м дождь {туман} туман 10/10 300 м
[St]
+6.0 +6.0 100 +2 +2 1003.7 995.7
06 21.06 В 6 4000 м дождь {туман} 10/10 300 м
[St]
+5.9 +5.9 100 +1 +1 1003.3 995.3
09 21.06 В 7 4000 м дождь 10/10 300 м
[St]
+6.1 +6.1 100 +1 +1 1003.4 995.5 +6.1 11
12 21.06 В 9-12
{13}
10 км дождь 10/10 300 м
[St]
+5.4 +5.4 100 -1 -1 1003.3 995.5
15 21.06 ЮВ 12-15
{15}
10 км дождь 10/10 300 м
[St]
+4.6 +4.6 100 -3 -3 1003.5 995.5
18 21.06 В 13
{18}
500 м туман {дождь} ?/? +5.0 +4.9 99 -2 -2 1003.4 995.4
21 21.06 ЮВ 13-16
{18}
500 м слабая морось {туман} туман ?/? +5.1 +5.1 100 -2 -2 1004.7 996.7 +4.3 3
00 22.06 В 13 500 м туман {морось} ?/? +4.9 +4.9 100 -3 -3 1006.4 998.4
03 22.06 В 16-21
{21}
500 м туман ?/? +4.7 +4.7 100 -3 -3 1006.9 999.0
06 22.06 ЮВ 14-17
{23}
200 м туман ?/? +4.9 +4.9 100 -3 -3 1007.5 999.5
09 22.06 ЮВ 15-18
{20}
200 м туман {морось} ?/? +5.2 +5.2 100 -3 -3 1008.2 1000.2 +7.0 0.3
12 22.06 ЮВ 12-16
{18}
500 м слабая морось {туман} туман ?/? +4.7 +4.7 100 -3 -3 1010.6 1002.6
15 22.06 В 11-13
{16}
200 м слабая морось {туман} туман ?/? +5.0 +5.0 100 -2 -2 1010.0 1004.0
18 22.06 ЮВ 10-12
{15}
10 км туман местами {морось} 8/3 300 м
[St Ac As Ci fib]
+4.3 +4.3 100 -3 -3 1013.1 1005.0
21 22.06 ЮВ 8-11
{12}
10 км туман местами 8/3 300 м
[St Ci fib]
+5.6 +5.4 99 -0 0 1014.1 1006.0 +4.3 0.0
00 23.06 ЮВ 5
{11}
10 км туман местами 10/10 300 м
[St]
+6.0 +5.3 95 +1 +1 1014.6 1006.6
03 23.06 ЮВ 4 50 км 8/6 300 м
[St Ci fib]
+5.9 +4.7 92 +2 +5 1014.5 1006.5
06 23.06 З 2 50 км 8/6 600 м
[Cu Sc Ci fib]
+7.8 +5.6 86 +6 +8 1013.7 1005.7
09 23.06 СЗ 7 50 км 8/4 300 м
[St Ac cast Cs]
+5.4 +4.5 94 -0 -0 1012.9 1005.0 +8.1
12 23.06 СЗ 6 50 км 10/3 1000 м
[Sc Ac lent Cs]
+4.2 +3.7 97 -1 -1 1012.9 1004.9
15 23.06 С 4 500 м туман ?/? +3.6 +3.4 99 -1 -1 1012.3 1004.5
18 23.06 С 5 10 км дымка {туман} 10/0
[]
+3.2 +3.0 99 -2 -2 1012.2 1004.1
21 23.06 СЗ 5 50 км ясно +4.4 +4.2 99 -1 +2 1012.3 1004.3 +2.9
00 24.06 СЗ 7 2000 м туман местами 10/10 600 м
[St]
+4.9 +4.2 95 -1 -1 1011.8 1003.7
03 24.06 СЗ 8-10
{10}
2000 м туман местами 10/10 600 м
[St]
+6.3 +4.9 91 +1 +1 1011.2 1003.3
06 24.06 СЗ 10-11
{12}
20 км туман местами ясно +7.3 +5.3 87 +2 +2 1010.0 1002.1
09 24.06 СЗ 8-10
{12}
50 км ясно +7.6 +4.6 81 +3 +3 1009.8 1001.9 +8.5
12 24.06 СЗ 11 н/о н/о +6.0 +4.6 91 -0 -0 1009.3 1001.3 +7.7

 

Местоположение метеостанции Мыс Алевина (Магаданская область, Россия): широта 58.83 долгота 151.30 высота над уровнем моря 65 м.

В архиве по умолчанию представлена погода на Мысе Алевина за последнюю неделю. Архивные данные за месяц целиком и за предыдущие месяцы, начиная с января 2011 года, Вы можете получить, выбрав интересующий диапазон дат из раскрывающегося списка и нажав кнопку "Ввод!".

Внимание! Время в таблицах - всемирное. Для получения местного времени необходимо прибавить поправку, которая на Мысе Алевина равна 11 ч.

Смотрите также архив погоды в соседних городах и на ближайших метеорологических станциях:

Погода в Оле (Магаданская область, Россия) (81 км)
Погода в Магадане (Магаданская область, Россия) (87 км)
Погода в Армани (Магаданская область, Россия) (115 км)
Погода на Мысе Братьев (Магаданская область, Россия) (119 км)
Погода на Остров Спафарьева (Магаданская область, Россия) (137 км)
Погода в Палатке (Магаданская область, Россия) (143 км)
Погода в Талоне (Магаданская область, Россия) (185 км)
Погода в Брохово (Магаданская область, Россия) (188 км)
Погода в Мадауне (Магаданская область, Россия) (200 км)
Погода в Талае (Магаданская область, Россия) (262 км)

Пояснения к столбцам:

Ветер - указаны скорость ветра в м/с - средняя за 10 мин, порывы в срок и между сроками (в фигурных скобках) и направление, откуда дует ветер: С - северный, СВ - северо-восточный, В - восточный, ЮВ - юго-восточный, Ю - южный, ЮЗ - юго-западный, З - западный, СЗ - северо-западный.
Видимость - горизонтальная дальность видимости в метрах или километрах. При видимости от 1 до 10 км при отсутствии осадков обычно наблюдается дымка, при ухудшении видимости до 1 км и менее - туман. В сухую погоду видимость может ухудшаться дымом, пылью или мглою.
Явления - указаны атмосферные явления, наблюдавшиеся в срок или в последний час перед сроком; фигурными скобками обозначены явления, наблюдавшиеся между сроками (за 1-3 часа до срока); квадратными скобками обозначены град или гололедные отложения с указанием их диаметра в мм.
Облачность - указаны через наклонную черту общая и нижняя облачность в баллах и высота нижней границы облаков в метрах; квадратными скобками обозначены формы облаков: Ci - перистые, Cs - перисто-слоистые, Cc - перисто-кучевые, Ac - высококучевые, As - высокослоистые, Sc - слоисто-кучевые, Ns - слоисто-дождевые, Cu - кучевые, Cb - кучево-дождевые. Подробнее классификацию облаков см. в Атласе облаков (PDF).
T - Температура воздуха - температура, измеренная на высоте 2 м над землей.
Td - Температура точки росы - температура, при понижении до которой содержащийся в воздухе водяной пар достигнет насыщения.
f - Относительная влажность воздуха - влажноcть воздуха, измеренная на высоте 2 м над землей.
Te - Эффективная температура - температура, которую ощущает одетый по сезону человек в тени. Характеристика душности погоды. При расчете учитывается влияние влажности воздуха и скорости ветра на теплоощущения человека.
Tes - Эффективная температура на солнце - температура, которую ощущает человек, с поправкой на солнечный нагрев. Характеристика знойности погоды. Зависит от высоты солнца над горизонтом, облачности и скорости ветра. Ночью, в пасмурную погоду, а также при ветре 12 м/с и более поправка равна нулю.
P - Атмосферное давление - приведенное к уровню моря атмосферное давление.
Po - Атмосферное давление - измеренное на уровне метеостанции атмосферное давление.
Tmin - Минимальная температура - минимум температуры воздуха на высоте 2 м над землей.
Tmax - Максимальная температура - максимум температуры воздуха на высоте 2 м над землей.
R - Количество осадков - Количество выпавших осадков за период времени, мм. При наведении курсора мыши на число - период времени, за который выпало указанное количество осадков.
R24 - Количество осадков - Количество выпавших осадков за 24 часа, мм.
S - Снежный покров - Высота снежного покрова, см. При наведении курсора мыши на число - состояние снежного покрова и степень покрытия местности в баллах.